Check out our new BloomSky Weather System.

Active alerts


No alerts


Thunder radar  blitzortung!


Rain radar more information rain snow radar


Visit our other weather sites:

Template documentation
and downloads

And another site



Weather Underground History page Text

Daily Summary for March 14, 2017 Units:  Metric    English   Both
« Previous Day
Next Day »
Daily Weekly Monthly Yearly Custom
  High: Low: Average:
Temperature: -17.8 °C 5.2 °C 12.9 °C
Dew Point: -17.8 °C 2.5 °C 5.4 °C
Humidity: Humidity % 31 % 64 %
Wind Speed: 0 km/h 0 km/h 1.4 km/h
Wind Gust: 0 km/h - -
Wind:- - SW
Pressure: 0 hPa 1021.2 hPa -
Precipitation: 0 mm    
Historical Graphs
 
 
Tabular Data for March 14, 2017
Time Temperature Dew Point Pressure Wind Wind Speed Wind Gust Humidity Rainfall Rate (Hourly)
-17.8 °C -17.8 °C 0 hPa Calm     Humidity % 0 mm
00:04 9.7 °C 8.6 °C 1021.9 hPa Calm     93 % 0 mm
00:09 9.6 °C 8.7 °C 1021.9 hPa Calm     94 % 0 mm
00:14 9.7 °C 8.8 °C 1021.9 hPa Calm     94 % 0 mm
00:19 9.6 °C 8.7 °C 1021.9 hPa Calm   1.6 km/h 94 % 0 mm
00:24 9.5 °C 8.6 °C 1021.9 hPa Calm   1.6 km/h 94 % 0 mm
00:29 9.4 °C 8.5 °C 1021.9 hPa Calm   1.6 km/h 94 % 0 mm
00:34 9.5 °C 8.7 °C 1021.9 hPa Calm     95 % 0 mm
00:39 9.6 °C 8.8 °C 1021.9 hPa Calm     95 % 0 mm
00:44 9.7 °C 8.9 °C 1021.9 hPa Calm     95 % 0 mm
00:49 9.6 °C 8.7 °C 1021.9 hPa Calm     94 % 0 mm
00:54 9.6 °C 8.8 °C 1021.9 hPa Calm     95 % 0 mm
00:59 9.8 °C 9 °C 1021.9 hPa Calm   3.2 km/h 95 % 0 mm
01:04 9.9 °C 9 °C 1021.9 hPa NW 1.6 km/h 4.8 km/h 94 % 0 mm
01:09 10.2 °C 9.1 °C 1022.2 hPa NNW 1.6 km/h 6.4 km/h 93 % 0 mm
01:14 10.3 °C 9.2 °C 1022.2 hPa NW 1.6 km/h 6.4 km/h 93 % 0 mm
01:19 10.3 °C 9.1 °C 1022.2 hPa Calm   6.4 km/h 92 % 0 mm
01:24 10.2 °C 9 °C 1022.2 hPa Calm   6.4 km/h 92 % 0 mm
01:29 10.1 °C 8.9 °C 1022.2 hPa Calm   6.4 km/h 92 % 0 mm
01:34 10 °C 8.8 °C 1022.2 hPa Calm   3.2 km/h 92 % 0 mm
01:39 9.9 °C 8.7 °C 1022.2 hPa Calm   3.2 km/h 92 % 0 mm
01:44 9.8 °C 8.6 °C 1022.2 hPa Calm   1.6 km/h 92 % 0 mm
01:49 9.7 °C 8.5 °C 1022.6 hPa Calm   1.6 km/h 92 % 0 mm
01:54 9.6 °C 8.4 °C 1022.6 hPa Calm   1.6 km/h 92 % 0 mm
01:59 9.7 °C 8.6 °C 1022.6 hPa NW 1.6 km/h 1.6 km/h 93 % 0 mm
02:04 9.8 °C 8.6 °C 1022.6 hPa NNW 1.6 km/h 4.8 km/h 92 % 0 mm
02:09 9.8 °C 8.6 °C 1022.6 hPa NW 3.2 km/h 4.8 km/h 92 % 0 mm
02:15 9.8 °C 8.2 °C 1022.6 hPa NNE 1.6 km/h 6.4 km/h 90 % 0 mm
02:20 9.7 °C 7.8 °C 1022.6 hPa NNW 1.6 km/h 6.4 km/h 88 % 0 mm
02:25 9.6 °C 7.4 °C 1022.6 hPa NNW 1.6 km/h 6.4 km/h 86 % 0 mm
02:30 9.6 °C 7.2 °C 1022.9 hPa NNW 1.6 km/h 6.4 km/h 85 % 0 mm
02:35 9.6 °C 7 °C 1022.9 hPa NW 1.6 km/h 4.8 km/h 84 % 0 mm
02:40 9.5 °C 6.8 °C 1022.9 hPa NW 3.2 km/h 6.4 km/h 83 % 0 mm
02:45 9.5 °C 6.6 °C 1022.9 hPa NNW 4.8 km/h 6.4 km/h 82 % 0 mm
02:50 9.4 °C 6.5 °C 1023.2 hPa WNW 3.2 km/h 6.4 km/h 82 % 0 mm
02:55 9.4 °C 6.3 °C 1023.2 hPa NW 3.2 km/h 6.4 km/h 81 % 0 mm
03:00 9.3 °C 6.2 °C 1023.2 hPa NW 1.6 km/h 6.4 km/h 81 % 0 mm
03:05 9.3 °C 6 °C 1023.2 hPa Calm   4.8 km/h 80 % 0 mm
03:10 9.2 °C 5.9 °C 1023.2 hPa Calm   4.8 km/h 80 % 0 mm
03:15 9.2 °C 5.9 °C 1023.2 hPa Calm   4.8 km/h 80 % 0 mm
03:20 9.1 °C 5.7 °C 1023.2 hPa Calm   4.8 km/h 79 % 0 mm
03:25 8.9 °C 5.6 °C 1022.9 hPa Calm   4.8 km/h 80 % 0 mm
03:30 8.7 °C 5.4 °C 1022.9 hPa NNW 1.6 km/h 4.8 km/h 80 % 0 mm
03:35 8.6 °C 5.5 °C 1022.9 hPa Calm   4.8 km/h 81 % 0 mm
03:40 8.5 °C 5.4 °C 1023.2 hPa Calm   4.8 km/h 81 % 0 mm
03:45 8.4 °C 5.3 °C 1023.2 hPa NW 1.6 km/h 3.2 km/h 81 % 0 mm
03:50 8.3 °C 5.2 °C 1023.2 hPa NW 1.6 km/h 3.2 km/h 81 % 0 mm
03:55 8.2 °C 5.1 °C 1023.2 hPa NW 1.6 km/h 4.8 km/h 81 % 0 mm
04:00 8.2 °C 5.1 °C 1023.2 hPa NNW 1.6 km/h 4.8 km/h 81 % 0 mm
04:05 8.2 °C 5.1 °C 1023.2 hPa NW 1.6 km/h 4.8 km/h 81 % 0 mm
04:10 8.1 °C 5 °C 1023.2 hPa Calm   4.8 km/h 81 % 0 mm
04:15 8 °C 4.9 °C 1023.2 hPa Calm   4.8 km/h 81 % 0 mm
04:20 7.9 °C 4.8 °C 1023.2 hPa Calm   4.8 km/h 81 % 0 mm
04:25 7.7 °C 4.8 °C 1023.2 hPa Calm   4.8 km/h 82 % 0 mm
04:30 7.7 °C 4.8 °C 1023.2 hPa Calm   3.2 km/h 82 % 0 mm
04:35 7.7 °C 4.8 °C 1023.2 hPa Calm   3.2 km/h 82 % 0 mm
04:40 7.6 °C 4.7 °C 1023.2 hPa Calm   3.2 km/h 82 % 0 mm
04:45 7.6 °C 4.5 °C 1023.2 hPa Calm   3.2 km/h 81 % 0 mm
04:50 7.4 °C 4.4 °C 1023.2 hPa Calm   3.2 km/h 81 % 0 mm
04:55 7.3 °C 4.4 °C 1023.2 hPa Calm   3.2 km/h 82 % 0 mm
05:00 7.3 °C 4.4 °C 1023.2 hPa Calm   3.2 km/h 82 % 0 mm
05:05 7.2 °C 4.3 °C 1023.2 hPa Calm   3.2 km/h 82 % 0 mm
05:10 7.1 °C 4.4 °C 1023.6 hPa Calm   3.2 km/h 83 % 0 mm
05:15 6.9 °C 4.2 °C 1023.6 hPa Calm   4.8 km/h 83 % 0 mm
05:20 6.9 °C 4 °C 1023.6 hPa NW 1.6 km/h 4.8 km/h 82 % 0 mm
05:25 6.9 °C 4 °C 1023.6 hPa Calm   4.8 km/h 82 % 0 mm
05:26 6.9 °C 4 °C 1023.6 hPa Calm   4.8 km/h 82 % 0 mm
05:31 6.9 °C 3.9 °C 1023.6 hPa Calm   3.2 km/h 81 % 0 mm
05:36 6.8 °C 3.6 °C 1023.6 hPa Calm   3.2 km/h 80 % 0 mm
05:41 6.9 °C 3.5 °C 1023.9 hPa NNW 1.6 km/h 8 km/h 79 % 0 mm
05:46 7 °C 3.4 °C 1023.9 hPa NNW 1.6 km/h 8 km/h 78 % 0 mm
05:51 7.1 °C 3.3 °C 1023.9 hPa Calm   8 km/h 77 % 0 mm
05:56 7.1 °C 3.2 °C 1023.9 hPa Calm   6.4 km/h 76 % 0 mm
06:01 7.1 °C 3.2 °C 1023.9 hPa Calm   4.8 km/h 76 % 0 mm
06:06 7 °C 3.1 °C 1023.9 hPa Calm   4.8 km/h 76 % 0 mm
06:11 7 °C 3.1 °C 1023.9 hPa NNE 3.2 km/h 4.8 km/h 76 % 0 mm
06:16 7 °C 3.1 °C 1023.9 hPa North 1.6 km/h 4.8 km/h 76 % 0 mm
06:21 6.9 °C 3 °C 1023.9 hPa Calm   6.4 km/h 76 % 0 mm
06:32 6.7 °C 2.8 °C 1024.3 hPa Calm   6.4 km/h 76 % 0 mm
06:37 6.6 °C 2.9 °C 1024.3 hPa Calm   3.2 km/h 77 % 0 mm
06:42 6.6 °C 2.9 °C 1023.9 hPa Calm   3.2 km/h 77 % 0 mm
06:47 6.5 °C 2.9 °C 1024.3 hPa NNW 1.6 km/h 1.6 km/h 78 % 0 mm
06:52 6.4 °C 2.8 °C 1024.3 hPa Calm   3.2 km/h 78 % 0 mm
06:57 6.3 °C 2.7 °C 1024.3 hPa NNW 1.6 km/h 3.2 km/h 78 % 0 mm
07:02 6.3 °C 2.9 °C 1024.6 hPa NNW 1.6 km/h 3.2 km/h 79 % 0 mm
07:07 6.2 °C 3 °C 1024.6 hPa Calm   3.2 km/h 80 % 0 mm
07:12 6.1 °C 2.9 °C 1024.6 hPa Calm   3.2 km/h 80 % 0 mm
07:17 5.9 °C 2.9 °C 1024.9 hPa Calm   3.2 km/h 81 % 0 mm
07:22 5.8 °C 2.8 °C 1024.9 hPa Calm   3.2 km/h 81 % 0 mm
07:27 5.8 °C 3 °C 1024.9 hPa Calm   3.2 km/h 82 % 0 mm
07:31 5.8 °C 2.8 °C 1024.9 hPa Calm   3.2 km/h 81 % 0 mm
07:37 5.6 °C 2.6 °C 1024.9 hPa Calm   3.2 km/h 81 % 0 mm
07:42 5.5 °C 2.7 °C 1024.9 hPa Calm   1.6 km/h 82 % 0 mm
07:47 5.5 °C 2.8 °C 1024.9 hPa Calm   1.6 km/h 83 % 0 mm
07:52 5.4 °C 2.7 °C 1024.9 hPa Calm   1.6 km/h 83 % 0 mm
07:57 5.2 °C 2.5 °C 1024.9 hPa Calm   1.6 km/h 83 % 0 mm
08:02 5.2 °C 2.7 °C 1024.9 hPa Calm   1.6 km/h 84 % 0 mm
08:07 5.4 °C 2.9 °C 1025.3 hPa Calm   1.6 km/h 84 % 0 mm
08:12 5.7 °C 3.2 °C 1025.3 hPa Calm   1.6 km/h 84 % 0 mm
08:17 6.2 °C 3.5 °C 1025.3 hPa Calm   1.6 km/h 83 % 0 mm
08:22 6.6 °C 3.7 °C 1025.6 hPa NW 1.6 km/h 1.6 km/h 82 % 0 mm
08:27 7.1 °C 4.1 °C 1025.3 hPa Calm   3.2 km/h 81 % 0 mm
08:32 7.4 °C 4 °C 1025.6 hPa Calm   3.2 km/h 79 % 0 mm
08:37 7.8 °C 4.2 °C 1025.6 hPa Calm   3.2 km/h 78 % 0 mm
08:42 8.2 °C 4.2 °C 1025.6 hPa Calm   3.2 km/h 76 % 0 mm
08:47 8.4 °C 3.8 °C 1025.6 hPa NW 1.6 km/h 8 km/h 73 % 0 mm
08:52 8.5 °C 3.7 °C 1025.6 hPa North 1.6 km/h 8 km/h 72 % 0 mm
08:57 8.9 °C 4.1 °C 1025.6 hPa ENE 3.2 km/h 8 km/h 72 % 0 mm
09:02 9.3 °C 3.7 °C 1025.6 hPa ENE 3.2 km/h 8 km/h 68 % 0 mm
09:07 9.3 °C 3.3 °C 1025.6 hPa Calm   4.8 km/h 66 % 0 mm
09:12 9.4 °C 3.2 °C 1025.6 hPa East 1.6 km/h 6.4 km/h 65 % 0 mm
09:17 9.5 °C 3.2 °C 1026 hPa NNW 4.8 km/h 8 km/h 65 % 0 mm
09:22 9.5 °C 3.2 °C 1025.6 hPa NE 3.2 km/h 8 km/h 65 % 0 mm
09:27 9.6 °C 3.3 °C 1026 hPa Calm   8 km/h 65 % 0 mm
09:32 10.1 °C 3.8 °C 1026 hPa NW 1.6 km/h 8 km/h 65 % 0 mm
09:37 10 °C 3.5 °C 1026 hPa North 1.6 km/h 8 km/h 64 % 0 mm
09:42 10 °C 3.7 °C 1026 hPa NNW 3.2 km/h 8 km/h 65 % 0 mm
09:47 10 °C 3.7 °C 1026 hPa Calm   9.7 km/h 65 % 0 mm
09:52 10.3 °C 3.8 °C 1026 hPa NNW 3.2 km/h 9.7 km/h 64 % 0 mm
09:57 10.2 °C 3.7 °C 1026 hPa ENE 3.2 km/h 9.7 km/h 64 % 0 mm
10:02 10.2 °C 3 °C 1026 hPa ENE 4.8 km/h 9.7 km/h 61 % 0 mm
10:07 10.2 °C 3.5 °C 1026 hPa Calm   9.7 km/h 63 % 0 mm
10:12 10.6 °C 4.1 °C 1026 hPa ESE 6.4 km/h 9.7 km/h 64 % 0 mm
10:17 10.7 °C 3.5 °C 1026 hPa ENE 1.6 km/h 9.7 km/h 61 % 0 mm
10:22 11.1 °C 4.3 °C 1026 hPa NW 1.6 km/h 8 km/h 63 % 0 mm
10:27 11.2 °C 3.7 °C 1026 hPa NW 3.2 km/h 8 km/h 60 % 0 mm
10:32 11.1 °C 3.6 °C 1026.3 hPa North 8 km/h 8 km/h 60 % 0 mm
10:37 11.1 °C 3.4 °C 1026.3 hPa NE 3.2 km/h 9.7 km/h 59 % 0 mm
10:42 11.1 °C 3.6 °C 1026.3 hPa NW 3.2 km/h 9.7 km/h 60 % 0 mm
10:47 11.2 °C 3.7 °C 1026.3 hPa North 1.6 km/h 9.7 km/h 60 % 0 mm
10:51 11.7 °C 4.9 °C 1026.3 hPa NW 4.8 km/h 8 km/h 63 % 0 mm
10:56 11.9 °C 3.9 °C 1026 hPa Calm   6.4 km/h 58 % 0 mm
11:01 11.9 °C 3.6 °C 1026 hPa Calm   9.7 km/h 57 % 0 mm
11:07 12.1 °C 4.6 °C 1026 hPa WNW 4.8 km/h 9.7 km/h 60 % 0 mm
11:12 12.2 °C 4.7 °C 1026 hPa Calm   9.7 km/h 60 % 0 mm
11:17 12.2 °C 4.7 °C 1026 hPa Calm   9.7 km/h 60 % 0 mm
11:22 12.5 °C 4.2 °C 1026 hPa NNW 8 km/h 11.3 km/h 57 % 0 mm
11:27 12.6 °C 4.1 °C 1026 hPa Calm   11.3 km/h 56 % 0 mm
11:32 12.7 °C 4.9 °C 1026 hPa NW 1.6 km/h 11.3 km/h 59 % 0 mm
11:37 13 °C 4.4 °C 1026 hPa North 6.4 km/h 9.7 km/h 56 % 0 mm
11:42 13.3 °C 4.4 °C 1025.6 hPa ENE 1.6 km/h 9.7 km/h 55 % 0 mm
11:47 13.4 °C 4.5 °C 1025.6 hPa WNW 1.6 km/h 9.7 km/h 55 % 0 mm
11:52 13.8 °C 4.9 °C 1025.6 hPa NW 8 km/h 9.7 km/h 55 % 0 mm
11:57 13.9 °C 4.7 °C 1025.3 hPa WNW 3.2 km/h 8 km/h 54 % 0 mm
12:02 14.2 °C 5 °C 1025.3 hPa Calm   8 km/h 54 % 0 mm
12:07 14.3 °C 4.6 °C 1025.3 hPa Calm   8 km/h 52 % 0 mm
12:12 14.6 °C 4.6 °C 1025.3 hPa WSW 1.6 km/h 9.7 km/h 51 % 0 mm
12:17 14.6 °C 4.3 °C 1025.3 hPa WNW 4.8 km/h 9.7 km/h 50 % 0 mm
12:22 14.5 °C 4.5 °C 1025.3 hPa Calm   9.7 km/h 51 % 0 mm
12:27 14.9 °C 5.4 °C 1025.3 hPa NE 1.6 km/h 9.7 km/h 53 % 0 mm
12:32 15.2 °C 5.7 °C 1025.3 hPa North 4.8 km/h 11.3 km/h 53 % 0 mm
12:37 15.4 °C 5 °C 1025.3 hPa Calm   11.3 km/h 50 % 0 mm
12:42 15.6 °C 5.2 °C 1025.3 hPa NNW 4.8 km/h 11.3 km/h 50 % 0 mm
12:47 15.1 °C 4.8 °C 1025.3 hPa NNE 1.6 km/h 11.3 km/h 50 % 0 mm
12:52 15.2 °C 4.8 °C 1025.3 hPa NNW 4.8 km/h 11.3 km/h 50 % 0 mm
12:57 15.3 °C 4.6 °C 1024.9 hPa NNW 4.8 km/h 11.3 km/h 49 % 0 mm
13:02 15.3 °C 4.6 °C 1024.9 hPa Calm   9.7 km/h 49 % 0 mm
13:07 15.6 °C 4.9 °C 1024.9 hPa SSE 1.6 km/h 9.7 km/h 49 % 0 mm
13:12 16.2 °C 6.1 °C 1024.9 hPa Calm   6.4 km/h 51 % 0 mm
13:17 16.4 °C 5.1 °C 1024.9 hPa Calm   6.4 km/h 47 % 0 mm
13:22 16.9 °C 5.5 °C 1024.6 hPa WNW 4.8 km/h 6.4 km/h 47 % 0 mm
13:27 17 °C 5.9 °C 1024.6 hPa NNE 8 km/h 9.7 km/h 48 % 0 mm
13:32 17 °C 5.9 °C 1024.3 hPa West 6.4 km/h 11.3 km/h 48 % 0 mm
13:37 17.1 °C 7.2 °C 1024.3 hPa WSW 4.8 km/h 11.3 km/h 52 % 0 mm
13:42 17.4 °C 5 °C 1024.3 hPa West 3.2 km/h 11.3 km/h 44 % 0 mm
13:47 17.3 °C 5.9 °C 1024.3 hPa Calm   9.7 km/h 47 % 0 mm
13:52 17.5 °C 5.7 °C 1024.3 hPa Calm   9.7 km/h 46 % 0 mm
13:57 17.7 °C 5 °C 1024.3 hPa NNW 4.8 km/h 9.7 km/h 43 % 0 mm
14:02 17.6 °C 5.5 °C 1023.9 hPa NNW 1.6 km/h 6.4 km/h 45 % 0 mm
14:07 17.7 °C 5 °C 1023.9 hPa ENE 3.2 km/h 6.4 km/h 43 % 0 mm
14:12 17.7 °C 5.6 °C 1023.6 hPa Calm   8 km/h 45 % 0 mm
14:17 18.2 °C 7 °C 1023.6 hPa SSW 6.4 km/h 8 km/h 48 % 0 mm
14:22 18.5 °C 6 °C 1023.2 hPa NNW 1.6 km/h 8 km/h 44 % 0 mm
14:27 18.3 °C 6.2 °C 1023.2 hPa NW 3.2 km/h 9.7 km/h 45 % 0 mm
14:32 18.2 °C 5.7 °C 1023.2 hPa Calm   9.7 km/h 44 % 0 mm
14:37 18.4 °C 5.9 °C 1023.2 hPa SE 1.6 km/h 9.7 km/h 44 % 0 mm
14:42 18.7 °C 6.8 °C 1022.9 hPa ESE 3.2 km/h 6.4 km/h 46 % 0 mm
14:47 18.8 °C 6.6 °C 1022.9 hPa Calm   6.4 km/h 45 % 0 mm
14:52 19.3 °C 6.4 °C 1022.6 hPa ENE 4.8 km/h 6.4 km/h 43 % 0 mm
14:57 19.1 °C 5.9 °C 1022.6 hPa Calm   4.8 km/h 42 % 0 mm
15:02 19.2 °C 7 °C 1022.6 hPa SE 3.2 km/h 8 km/h 45 % 0 mm
15:07 19.2 °C 6.3 °C 1022.2 hPa ESE 4.8 km/h 11.3 km/h 43 % 0 mm
15:12 19 °C 5.1 °C 1022.2 hPa SSE 4.8 km/h 11.3 km/h 40 % 0 mm
15:17 19.1 °C 5.5 °C 1022.2 hPa SSW 6.4 km/h 11.3 km/h 41 % 0 mm
15:22 19.6 °C 6.7 °C 1021.9 hPa Calm   9.7 km/h 43 % 0 mm
15:27 19.9 °C 6.3 °C 1021.9 hPa Calm   9.7 km/h 41 % 0 mm
15:32 20.1 °C 5.7 °C 1021.9 hPa NNW 1.6 km/h 9.7 km/h 39 % 0 mm
15:37 19.9 °C 4.4 °C 1021.9 hPa WNW 1.6 km/h 6.4 km/h 36 % 0 mm
15:42 20.1 °C 6.1 °C 1021.9 hPa SW 1.6 km/h 6.4 km/h 40 % 0 mm
15:47 20.4 °C 5.6 °C 1021.9 hPa East 3.2 km/h 6.4 km/h 38 % 0 mm
15:52 20 °C 5.6 °C 1021.9 hPa SE 8 km/h 8 km/h 39 % 0 mm
15:57 19.9 °C 4.4 °C 1021.6 hPa SE 4.8 km/h 9.7 km/h 36 % 0 mm
16:02 20 °C 4.9 °C 1021.9 hPa South 1.6 km/h 9.7 km/h 37 % 0 mm
16:07 20.2 °C 5.8 °C 1021.6 hPa SE 3.2 km/h 9.7 km/h 39 % 0 mm
16:12 20.3 °C 5.1 °C 1021.6 hPa East 1.6 km/h 9.7 km/h 37 % 0 mm
16:13 20.3 °C 5.1 °C 1021.6 hPa Calm   9.7 km/h 37 % 0 mm
16:23 20.4 °C 6 °C 1021.6 hPa Calm   9.7 km/h 39 % 0 mm
16:28 20.5 °C 5.7 °C 1021.6 hPa SW 1.6 km/h 9.7 km/h 38 % 0 mm
16:33 20.5 °C 4.5 °C 1021.6 hPa SSE 6.4 km/h 9.7 km/h 35 % 0 mm
16:38 20.4 °C 4.8 °C 1021.6 hPa SSE 3.2 km/h 9.7 km/h 36 % 0 mm
16:43 20.5 °C 5.7 °C 1021.6 hPa ESE 4.8 km/h 9.7 km/h 38 % 0 mm
16:48 20.6 °C 5.4 °C 1021.6 hPa Calm   8 km/h 37 % 0 mm
16:53 20.8 °C 5.2 °C 1021.6 hPa Calm   6.4 km/h 36 % 0 mm
16:58 20.6 °C 5 °C 1021.2 hPa WSW 1.6 km/h 6.4 km/h 36 % 0 mm
17:03 20.8 °C 5.6 °C 1021.2 hPa SSW 4.8 km/h 6.4 km/h 37 % 0 mm
17:08 20.7 °C 5.1 °C 1021.2 hPa SSW 1.6 km/h 6.4 km/h 36 % 0 mm
17:13 20.9 °C 5.7 °C 1021.2 hPa Calm   8 km/h 37 % 0 mm
17:18 21.2 °C 5.1 °C 1021.2 hPa Calm   8 km/h 35 % 0 mm
17:23 21.1 °C 4.6 °C 1021.2 hPa South 1.6 km/h 8 km/h 34 % 0 mm
17:28 21.1 °C 4.6 °C 1021.2 hPa South 3.2 km/h 6.4 km/h 34 % 0 mm
17:33 20.9 °C 5.7 °C 1021.2 hPa South 4.8 km/h 9.7 km/h 37 % 0 mm
17:38 20.8 °C 5.2 °C 1021.2 hPa SSE 1.6 km/h 9.7 km/h 36 % 0 mm
17:43 20.8 °C 4.4 °C 1021.2 hPa South 1.6 km/h 9.7 km/h 34 % 0 mm
17:48 20.9 °C 4.9 °C 1021.2 hPa Calm   9.7 km/h 35 % 0 mm
17:53 21.3 °C 4.4 °C 1021.2 hPa SSW 1.6 km/h 6.4 km/h 33 % 0 mm
17:58 21.4 °C 4.5 °C 1021.2 hPa Calm   6.4 km/h 33 % 0 mm
18:03 21.6 °C 4.2 °C 1021.6 hPa Calm   3.2 km/h 32 % 0 mm
18:08 21.8 °C 4.8 °C 1021.6 hPa Calm   3.2 km/h 33 % 0 mm
18:13 21.7 °C 3.8 °C 1021.6 hPa South 3.2 km/h 3.2 km/h 31 % 0 mm
18:18 21.2 °C 4.7 °C 1021.6 hPa SSW 3.2 km/h 6.4 km/h 34 % 0 mm
18:23 20.9 °C 4.9 °C 1021.6 hPa SW 4.8 km/h 6.4 km/h 35 % 0 mm
18:28 20.6 °C 4.2 °C 1021.6 hPa SE 3.2 km/h 6.4 km/h 34 % 0 mm
18:33 20.4 °C 4.4 °C 1021.2 hPa South 3.2 km/h 6.4 km/h 35 % 0 mm
18:39 20.3 °C 3.9 °C 1021.2 hPa SSW 6.4 km/h 6.4 km/h 34 % 0 mm
18:44 20.2 °C 3.8 °C 1021.2 hPa SE 3.2 km/h 9.7 km/h 34 % 0 mm
18:48 20.2 °C 4.6 °C 1021.2 hPa SW 3.2 km/h 9.7 km/h 36 % 0 mm
18:54 20.2 °C 5 °C 1021.2 hPa SSW 4.8 km/h 9.7 km/h 37 % 0 mm
18:59 20.2 °C 5 °C 1021.2 hPa South 3.2 km/h 8 km/h 37 % 0 mm
19:04 20.1 °C 5 °C 1021.2 hPa SSE 1.6 km/h 8 km/h 37 % 0 mm
19:09 19.8 °C 4.7 °C 1021.2 hPa South 1.6 km/h 8 km/h 37 % 0 mm
19:14 19.4 °C 4.7 °C 1021.2 hPa SE 3.2 km/h 6.4 km/h 38 % 0 mm
19:19 19.1 °C 4.8 °C 1021.2 hPa SSE 1.6 km/h 6.4 km/h 39 % 0 mm
19:24 18.9 °C 5 °C 1021.6 hPa Calm   3.2 km/h 40 % 0 mm
19:29 18.6 °C 4.4 °C 1021.6 hPa Calm   3.2 km/h 39 % 0 mm
19:34 18.4 °C 4.6 °C 1021.6 hPa Calm   3.2 km/h 40 % 0 mm
19:39 18.2 °C 5.1 °C 1021.6 hPa Calm   1.6 km/h 42 % 0 mm
19:44 17.9 °C 5.1 °C 1021.6 hPa Calm   1.6 km/h 43 % 0 mm
19:49 17.4 °C 4.7 °C 1021.6 hPa Calm   1.6 km/h 43 % 0 mm
19:54 16.9 °C 5.2 °C 1021.6 hPa Calm   1.6 km/h 46 % 0 mm
19:59 16.7 °C 5.3 °C 1021.6 hPa Calm   1.6 km/h 47 % 0 mm
20:04 16.3 °C 5.3 °C 1021.6 hPa Calm   1.6 km/h 48 % 0 mm
20:09 16 °C 5.6 °C 1021.6 hPa Calm   1.6 km/h 50 % 0 mm
20:14 15.8 °C 6 °C 1021.9 hPa Calm     52 % 0 mm
20:19 15.8 °C 6.2 °C 1021.9 hPa Calm     53 % 0 mm
20:24 15.7 °C 6.7 °C 1021.9 hPa Calm   1.6 km/h 55 % 0 mm
20:29 15.6 °C 6.9 °C 1021.9 hPa Calm   1.6 km/h 56 % 0 mm
20:34 15.3 °C 6.6 °C 1022.2 hPa Calm   1.6 km/h 56 % 0 mm
20:39 14.9 °C 6.5 °C 1022.2 hPa Calm   1.6 km/h 57 % 0 mm
20:44 14.6 °C 6.7 °C 1022.2 hPa Calm   1.6 km/h 59 % 0 mm
20:49 14.3 °C 6.9 °C 1022.2 hPa Calm   1.6 km/h 61 % 0 mm
20:54 14.2 °C 6.8 °C 1022.2 hPa Calm     61 % 0 mm
20:59 14.1 °C 6.9 °C 1022.2 hPa Calm     62 % 0 mm
21:04 13.9 °C 7 °C 1022.2 hPa Calm     63 % 0 mm
21:09 13.7 °C 7 °C 1022.2 hPa Calm   1.6 km/h 64 % 0 mm
21:19 13.7 °C 7.5 °C 1022.6 hPa Calm   1.6 km/h 66 % 0 mm
21:29 14 °C 7.7 °C 1022.6 hPa Calm   1.6 km/h 66 % 0 mm
21:34 14.1 °C 7.6 °C 1022.2 hPa Calm   1.6 km/h 65 % 0 mm
21:39 14.3 °C 7.6 °C 1022.2 hPa Calm   1.6 km/h 64 % 0 mm
21:44 14.3 °C 7.6 °C 1022.6 hPa Calm   1.6 km/h 64 % 0 mm
21:49 14.3 °C 7.6 °C 1022.6 hPa Calm   1.6 km/h 64 % 0 mm
21:54 14.1 °C 7.6 °C 1022.6 hPa Calm   1.6 km/h 65 % 0 mm
21:59 14 °C 8 °C 1022.9 hPa Calm   1.6 km/h 67 % 0 mm
22:04 13.8 °C 7.8 °C 1022.9 hPa Calm   1.6 km/h 67 % 0 mm
22:09 13.7 °C 7.9 °C 1022.9 hPa Calm   1.6 km/h 68 % 0 mm
22:14 13.5 °C 7.7 °C 1022.9 hPa Calm   1.6 km/h 68 % 0 mm
22:20 13.6 °C 8.2 °C 1022.9 hPa SE 1.6 km/h 1.6 km/h 70 % 0 mm
22:25 13.8 °C 8.4 °C 1023.2 hPa SE 3.2 km/h 3.2 km/h 70 % 0 mm
22:30 13.9 °C 8.5 °C 1023.2 hPa SE 1.6 km/h 3.2 km/h 70 % 0 mm
22:35 13.9 °C 8.5 °C 1023.2 hPa Calm   4.8 km/h 70 % 0 mm
22:40 13.8 °C 8.6 °C 1023.2 hPa ESE 1.6 km/h 4.8 km/h 71 % 0 mm
22:50 13.6 °C 8.4 °C 1023.2 hPa Calm   1.6 km/h 71 % 0 mm
22:55 13.5 °C 8.6 °C 1023.6 hPa Calm   1.6 km/h 72 % 0 mm
23:00 13.5 °C 8.8 °C 1023.6 hPa Calm   1.6 km/h 73 % 0 mm
23:05 13.4 °C 8.9 °C 1023.6 hPa Calm   1.6 km/h 74 % 0 mm
23:10 13.3 °C 8.8 °C 1023.6 hPa Calm   1.6 km/h 74 % 0 mm
23:15 13.2 °C 8.9 °C 1023.6 hPa Calm     75 % 0 mm
23:20 12.9 °C 8.6 °C 1023.6 hPa Calm     75 % 0 mm
23:25 12.7 °C 8.6 °C 1023.6 hPa Calm   1.6 km/h 76 % 0 mm
23:30 12.7 °C 8.8 °C 1023.6 hPa Calm   1.6 km/h 77 % 0 mm
23:35 12.5 °C 8.8 °C 1023.6 hPa Calm   1.6 km/h 78 % 0 mm
23:40 12.3 °C 8.8 °C 1023.2 hPa Calm     79 % 0 mm
23:45 12.1 °C 8.6 °C 1023.2 hPa Calm     79 % 0 mm
23:50 11.9 °C 8.6 °C 1023.2 hPa Calm     80 % 0 mm
23:55 11.8 °C 8.6 °C 1023.2 hPa Calm     81 % 0 mm
Spring, Texas: Villages of Bridgestone
Compliments of Weather Underground - 2.75 mb

Script developed by  Jim McMurry - jmcmurry@mwt.net Adapted for the template by  Wim van der Kuil - Leuven-Template.eu

You find our weather info also at:

UK Metoffice

WeatherCloud

Weather Underground

Mid-South Weather Network

AWEKAS

Citizen Weather Observer Program (CWOP)

HAMweather, WeatherForYou, PWS Weather

Equipment we use:

Weather-station
Davis Vantage Vue

Weather-program
Meteohub

Weather-server
Debian 7.9 x86 (Guest)

Provider
DreamHost

Davis Vantage Vue

Meteohub

Debian 7.9 x86 (Guest)

DreamHost